FENGYUN 1C DEB, 32117

Orbit data source: Space-Track

FENGYUN 1C DEB, 32117 is space debris in SSO originally from a launch on Mon, 10 May 1999 UTC launched from the Taiyaun Space Center, China (TSC). Fengyun 1C debris stems from the Chinese weather satellite Fengyun-1C, which was intentionally destroyed by a Chinese anti-satellite missile in 2007. This event dramatically increased the amount of space debris, with thousands of trackable fragments posing hazards to satellites and human spaceflight. The Fengyun 1C debris cloud has become a focal point in discussions about space sustainability and the need for international regulations to prevent the creation of new debris.

Loading next visibility...
Identifier
32117, 1999-025CRK
Orbit
SSO
Country
Flag of CNCN / PRC
Related business
Manufacturer
Unknown
Mission
Spacecraft
Bus & Motor
Unknown
Mass
Unknown
Launch date (UTC)
1999-05-10 (27 years ago)
Launch vehicle
Unknown
Launch site
Taiyaun Space Center, China (TSC)
Object type
Payload
Rocket body
Debris
Shape & HBR
Unknown shape, 0.1 m
Radar Cross Section
Small (<0.1 m²)

Expand to show TLE details & history
Last TLE update: 2 days ago

TLE from 2 days ago
0 FENGYUN 1C DEB
1 32117U 99025CRK 26035.08332436  .00002255  00000-0  99333-3 0  9998
2 32117  98.6032  84.3245 0025083 292.7618  67.0911 14.24229915955566
Epoch: 2026-02-04T01:59Z
TLE epoch observation values (Epoch: 2026-02-04T01:59:59.224Z)
Latitude
-0.00004°
Longitude
-79.92726°
Altitude
807.024 km
Speed
7.453 km/s
True Right ascension
05h 37m 17s
True Declination
0° 00' 00"
Sunlit
Object was in full shadow at epoch
Visualization orbit readout
Latitude
Unknown
Longitude
Unknown
Altitude
Unknown
Speed
Unknown
Apparent Right ascension
Unknown
Apparent Declination
Unknown
Sunlit
N/A
Visualization observer readout
Local Sidereal Time
07:01:55
Azimuth
Unknown
Elevation
Unknown
Doppler factor
Unknown
Orbital elements
Apogee altitude
826.256 km
Perigee altitude
790.205 km
Semi-major axis
7,186.368 km
Eccentricity
0.00251
Inclination
98.6032°
RAAN
84.3245°
Arg. of periapsis
292.7618°
True anomaly
67.35618°
Mean anomaly
67.0911°
Eccentric anomaly
67.22361°
Mean motion
3.5627 °/min
Orbital period
101.05 mins
BSTAR
0.00099333
Loading maneuver chart data...
Computing Atmospheric mass density...

Documentation

Showing up to 5 results
|